Regional Weather Roundup
Issued by NWS Cleveland, OH

Home | Current Version | Previous Version | Graphics & Text | Print | Product List | Glossary On
Versions: 1 2 3 4 5 6 7 8 9 10 11 12 13 14 15 16 17 18 19 20 21 22 23 24 25 26 27 28 29 30 31 32 33 34 35 36 37 38 39 40 41 42 43 44 45 46 47 48 49 50
622
ASUS41 KCLE 252010
RWRCLE
OHIO REGIONAL WEATHER ROUNDUP
NATIONAL WEATHER SERVICE CLEVELAND, OH
400 PM EDT MON JUL 25 2016

NOTE: "FAIR" INDICATES FEW OR NO CLOUDS BELOW 12,000 FEET WITH NO
SIGNIFICANT WEATHER AND/OR OBSTRUCTIONS TO VISIBILITY.

OHZ001>008-015>018-024>027-034-035-043-044-252100-
   NORTHWEST OHIO

CITY           SKY/WX    TMP DP  RH WIND       PRES   REMARKS
DEFIANCE       MOSUNNY   89  69  51 W9        29.96F HX  93
FINDLAY        SUNNY     90  66  45 W13G18    29.95F HX  92
TOLEDO EXPRESS CLOUDY    87  72  60 W12       29.94F HX  93
TOLEDO EXEC    CLOUDY    88  71  57 W16       29.94F HX  94
LIMA           SUNNY     87  69  54 SW9       29.97F HX  91
$$

OHZ009>014-019>023-028>033-038-089-252100-
   NORTHEAST OHIO

CITY           SKY/WX    TMP DP  RH WIND       PRES   REMARKS
CLE-HOPKINS    PTSUNNY   91  69  48 W15G23    29.94F HX  96
CLE-LAKEFRONT  MOSUNNY   84  72  67 W12       29.92F
CUY CO. ARPT   PTSUNNY   88  72  58 W14       29.95F HX  94
LORAIN-ELYRIA  MOSUNNY   85  71  63 W12       29.94F HX  90
ASHTABULA      PTSUNNY   82  73  74 W10       29.94F
AKRON-CANTON   PTSUNNY   87  66  49 W14       29.96F
WOOSTER        CLOUDY    84  66  54 W15       29.98S
MANSFIELD      PTSUNNY   86  65  49 W10       29.99F
YOUNGSTOWN     CLOUDY    87  68  52 W12       29.94F HX  90
$$

OHZ042-051>053-060>062-070>072-077>081-252100-
  SOUTHWEST OHIO

CITY           SKY/WX    TMP DP  RH WIND       PRES   REMARKS
CINC-COVINGTON CLOUDY    92  73  53 N13       29.97F HX 100
CINC-LUNKEN    MOSUNNY   91  73  55 N14       29.95F HX  99
HAMILTON       MOSUNNY   93  67  42 NW9G20    29.98F HX  96
DAYTON         PTSUNNY   89  66  46 W15       30.00F HX  91
WRIGHT-PAT AFB MOSUNNY   90  67  46 W12       29.97F HX  93
DAYTON GENERAL CLOUDY    90  66  45 NW10G20   29.98F HX  92
WILMINGTON     CLOUDY    91  71  51 NW12      29.97F HX  97
$$

OHZ036-037-039>041-045>050-054>059-063>069-073>076-082>088-252100-
  CENTRAL AND SOUTHEAST OHIO

CITY           SKY/WX    TMP DP  RH WIND       PRES   REMARKS
COLUMBUS       PTSUNNY   90  69  50 NW15      29.95F HX  94
OSU AIRPORT    CLOUDY    89  71  55 N8        29.96F HX  95
BOLTON FIELD   MOSUNNY   90  72  55 W12       29.97F HX  96
RICKENBACK AFB MOSUNNY   91  69  49 W14       29.95F HX  96
NEWARK         MOSUNNY   91  71  51 NW13      29.95F HX  97
MARION         SUNNY     88  62  41 VRB5      29.98F
LANCASTER      SUNNY     89  71  55 W9        29.96F HX  95
ZANESVILLE     PTSUNNY   94  68  42 W5        29.94F HX  98
NEW PHILLY     CLOUDY    94  68  42 W13       29.94F HX  98
$$




USA.gov is the U.S. government's official web portal to all federal, state and local government web resources and services.